Tracking 29892 objects as of 21-Nov-2024
HD Live streaming from Space Station
objects crossing your sky now

STARLINK-3684

Track STARLINK-3684 now!
10-day predictions
STARLINK-3684 is classified as:


NORAD ID: 52124
Int'l Code: 2022-029AN
Perigee: 470.7 km
Apogee: 472.5 km
Inclination: 53.2 °
Period: 93.9 minutes
Semi major axis: 6842 km
RCS: Unknown
Launch date: March 19, 2022
Source: United States (US)
Launch site: AIR FORCE EASTERN TEST RANGE (AFETR)
Your satellite tracking list
Your tracking list is empty




NASA's NSSDC Master Catalog

Two Line Element Set (TLE):
1 52124U 22029AN  24326.25001157  .01221044  00000-0  33817-1 0  9994
2 52124  53.2184  43.5120 0001321  77.9971 162.1647 15.33808242149323
Source of the keplerian elements: AFSPC